Location: Kergonan
(48.2337°N, 4.5518°W)
Time: 20:25:36
(UTC+00:00)

STARLINK-53 - Pass Details

Date: 18 January 2020
Orbit: 528 x 531 km, 53.0° (Epoch: 16 February)

Event Time Altitude Azimuth Distance (km) Brightness Sun altitude
Rises 05:50:15 0° 188° (S) 2,646 7.1 -21.5°
Reaches altitude 10° 05:53:21 10° 162° (SSE) 1,762 6.5 -21.0°
Drops below altitude 10° 05:57:30 10° 99° (E) 1,767 7.4 -20.3°
Enters shadow 06:59:19 -62° 237° (WSW) 11,811 10.3 -10.3°
Maximum altitude 07:33:52 66° 149° (SSE) 578 4.0 -5.0°
